This is the latest recevied weather packets stored in our database for station/object N5YHM-13. If no packets are shown the sender has not sent any weather packets the latest 10 day(s).
| Time | Temp. | Humidity | Pressure | Rain* | Wind** | Luminosity | Snow |
|---|---|---|---|---|---|---|---|
| 1778190426 | 24.44° C | 87% | 1015.6 hPa | 0 mm | - | 5 W/m² | - |
| 1778190123 | 24.44° C | 86% | 1015.5 hPa | 0 mm | - | 7 W/m² | - |
| 1778189818 | 24.44° C | 86% | 1015.5 hPa | 0 mm | - | 9 W/m² | - |
| 1778189516 | 24.44° C | 85% | 1015.2 hPa | 0 mm | - | 12 W/m² | - |
| 1778189212 | 25° C | 85% | 1015.1 hPa | 0 mm | - | 14 W/m² | - |
| 1778188909 | 24.44° C | 85% | 1015.3 hPa | 0 mm | - | 13 W/m² | - |
| 1778188606 | 24.44° C | 85% | 1015.2 hPa | 0 mm | - | 15 W/m² | - |
| 1778188301 | 25° C | 84% | 1015.3 hPa | 0 mm | - | 15 W/m² | - |
| 1778187999 | 25° C | 85% | 1015.3 hPa | 0 mm | - | 17 W/m² | - |
| 1778187695 | 24.44° C | 86% | 1015.2 hPa | 0 mm | - | 19 W/m² | - |
| 1778187392 | 24.44° C | 86% | 1015.2 hPa | 0 mm | - | 16 W/m² | - |
| 1778187089 | 24.44° C | 85% | 1015.2 hPa | 0 mm | - | 15 W/m² | - |
| 1778186785 | 24.44° C | 86% | 1015.1 hPa | 0 mm | - | 13 W/m² | - |
| 1778186483 | 24.44° C | 85% | 1015.2 hPa | 0 mm | - | 14 W/m² | - |
| 1778186181 | 24.44° C | 85% | 1015.4 hPa | 0 mm | - | 14 W/m² | - |
| 1778185878 | 24.44° C | 85% | 1015.4 hPa | 0 mm | - | 13 W/m² | - |
| 1778185574 | 24.44° C | 85% | 1015.3 hPa | 0 mm | - | 12 W/m² | - |
| 1778185270 | 24.44° C | 85% | 1015.2 hPa | 0 mm | - | 16 W/m² | - |
| 1778184965 | 24.44° C | 85% | 1015.2 hPa | 0 mm | - | 8 W/m² | - |
| 1778184663 | 24.44° C | 85% | 1015.4 hPa | 0 mm | - | 12 W/m² | - |
| 1778184358 | 25° C | 86% | 1015.5 hPa | 0 mm | - | 10 W/m² | - |
| 1778184054 | 25° C | 84% | 1015.6 hPa | 0 mm | - | 12 W/m² | - |
| 1778183752 | 25° C | 84% | 1015.7 hPa | 0 mm | - | 18 W/m² | - |
| 1778183449 | 25° C | 84% | 1015.5 hPa | 0 mm | - | 15 W/m² | - |
| 1778183145 | 25° C | 84% | 1015.4 hPa | 0 mm | - | 26 W/m² | - |
* Rain latest hour (hover to see other rain measurements)
** Current wind speed in m/s (hover to see current wind gust speed)